Back to Previous

Regional Weather Roundup

397 
ASUS44 KLZK 280805
RWRLZK

WEATHER ROUNDUP FOR ARKANSAS
NATIONAL WEATHER SERVICE LITTLE ROCK AR
300 AM CDT TUE JUL 28 2015

NOTE: "FAIR" INDICATES FEW OR NO CLOUDS BELOW 12,000 FEET WITH NO
SIGNIFICANT WEATHER AND/OR OBSTRUCTIONS TO VISIBILITY.

ARZ001-003-010-029-280900-
NORTHWEST ARKANSAS
  
CITY           SKY/WX    TMP DP  RH WIND       PRES   REMARKS
FAYETTEVILLE   CLEAR     75  72  90 S3        29.97F                  
FORT SMITH     CLEAR     80  72  76 E3        29.92F                  
HARRISON       CLEAR     75  73  93 SE3       29.98F                  
BENTONVILLE    CLEAR     79  70  73 S5        29.96F                  
ROGERS         CLEAR     79  71  76 S6        29.97F                  
SILOAM SPGS    CLEAR     79  66  65 S8        29.94F                  
HIGHFILL       CLEAR     79  73  82 S6        29.95F                  
$$

ARZ004-005-016-280900-
NORTH CENTRAL ARKANSAS
  
CITY           SKY/WX    TMP DP  RH WIND       PRES   REMARKS
BATESVILLE     CLEAR     81  73  78 E3        29.93F HX  85           
FLIPPIN        CLEAR     73  72  94 CALM      29.93F                  
MTN HOME       CLEAR     76  73  91 CALM      29.94F                  
$$

ARZ040-041-280900-
WEST CENTRAL ARKANSAS
  
CITY           SKY/WX    TMP DP  RH WIND       PRES   REMARKS
MENA           CLEAR     77  73  88 CALM      29.97S                  
MOUNT IDA      CLEAR     75  72  90 CALM      29.93F                  
$$

ARZ009-017-025-026-028-280900-
NORTHEAST ARKANSAS
  
CITY           SKY/WX    TMP DP  RH WIND       PRES   REMARKS
JONESBORO      CLEAR     77  77 100 CALM      29.92F                  
NEWPORT        CLEAR     80  79  97 S3        29.94F HX  86           
WALNUT RIDGE   CLEAR     79  75  89 S6        29.92F                  
BLYTHEVILLE    CLEAR     81  79  94 S5        29.93F HX  90           
$$

ARZ022-023-033-042-044-280900-
CENTRAL ARKANSAS
  
CITY           SKY/WX    TMP DP  RH WIND       PRES   REMARKS
LITTLE ROCK    CLEAR     82  76  81 W5        29.93F HX  89           
N LITTLE ROCK    N/A     82  76  84 SW3       29.93F HX  89           
JACKSONVILLE   CLEAR     78  75  90 NE1       29.93F                  
SEARCY         CLEAR     78  76  93 CALM      29.95S                  
HOT SPRINGS    CLEAR     80  73  79 CALM      29.94F                  
RUSSELLVILLE   CLEAR     76  74  93 CALM      29.93F                  
CLINTON        MIX PCPN  75  75 100 CALM      29.96F                  
$$

ARZ036-280900-
EAST ARKANSAS
  
CITY           SKY/WX    TMP DP  RH WIND       PRES   REMARKS
WEST MEMPHIS   CLEAR     79  78  97 CALM      29.93S                  
$$

ARZ050-053-066-070-073-280900-
SOUTHWEST ARKANSAS
  
CITY           SKY/WX    TMP DP  RH WIND       PRES   REMARKS
ARKADELPHIA    FAIR      77  77 100 CALM      29.93F FOG              
CAMDEN         CLEAR     77  73  88 CALM      29.93S                  
TEXARKANA      CLEAR     81  74  79 S5        29.93F HX  86           
EL DORADO      CLEAR     78  74  87 CALM      29.94F                  
DE QUEEN       CLEAR     76  75  97 CALM      29.91F FOG              
$$

ARZ056-057-069-280900-
SOUTHEAST ARKANSAS
  
CITY           SKY/WX    TMP DP  RH WIND       PRES   REMARKS
PINE BLUFF     CLEAR     80  74  81 CALM      29.93F HX  85           
STUTTGART      CLEAR     81  73  78 SW6       29.94R HX  85           
MONTICELLO     CLEAR     83  73  72 S3        29.93F HX  89           

$$




USA.gov is the U.S. government's official web portal to all federal, state and local government web resources and services.